Starlink 1304

operational
NORAD ID: 45376 Int'l Des: 2020-019 Owner: SPXS Country: US Constellation: starlink
LEOCIRCULARSTARLINK_TYPE

Starlink 1304について

説明を読み込み中...

リアルタイム位置

3D地球を読み込み中...

次回通過

高度履歴

Altitude vs Time

uPlot chart will show altitude changes over time

軌道要素

1 45376U 20019S 25350.92797310 .00001643 00000-0 12916-3 0 9996
2 45376 53.0540 178.1472 0001354 93.4719 266.6425 15.06402874317256
Epoch: Dec 16, 2025 • Age: 12 hours

現在のステータス

高度 547.7 km
速度 7.59 km/s
衛星直下点 2.08°N, 115.04°E
打ち上げ日 Mar 18, 2020
運用期間 5.7 years
タイプ internet

技術仕様

分類 Payload
質量 260.00 kg
乾燥質量 248.00 kg
総質量 260.00 kg
長さ 0.20 m
直径 2.80 m
スパン 9.00 m
形状 Box + pan
製造者 SPXS
バスタイプ Starlink
フェーズステータス In Orbit
所有者/国 SPXS/US

大規模コンステレーション

Loading constellations...